Vertical_Velocity
-0 0 0 -0 1 1 1 -0 2 -3 -3 -2 -3 -3 -2 -2 -3 -3 -4 -1 0 -2 -8 -2 -1 -2 1
2 1 1 -0 -1 1 2 -0 0 0 -3 -2 -0 -1 -1 1 -3 -2 -2 -1 -3 4 1 2 -4 -4 3
3 1 1 1 -1 2 1 -0 0 0 0 -3 -2 -0 -0 -3 -3 0 -3 1 -0 -2 2 1 -2 -2 -0
1 -1 0 0 1 -0 -0 -2 0 0 -4 -2 -2 1 0 -1 2 -1 -0 -0 1 0 -1 -3 -7 -3 2
-0 1 1 1 -2 -1 1 0 -2 1 1 2 0 -1 -3 -3 -1 1 -2 -1 -4 -1 -1 -1 -1 0 1
2 -1 2 0 1 -5 -2 1 -1 1 -2 -2 -1 -1 -1 1 -0 1 -2 -5 -3 0 -0 7 2 -5 -0
2 1 -3 2 -1 -2 -0 2 1 -0 0 0 -3 -1 -0 -0 -1 1 2 -3 0 -0 -2 -2 -0 -5 -6
-1 -0 2 3 -2 -0 -0 1 -1 0 -0 -1 0 2 0 -1 -1 -0 -0 3 5 -3 -1 7 5 1 2
1 -3 0 -0 -1 -2 1 -0 1 1 -2 -1 0 2 -1 1 -0 2 -2 -2 -2 1 -1 -5 -1 0 2
1 -6 -4 1 0 -3 1 1 2 -0 -3 -1 -1 -1 1 -2 -6 -4 7 1 -8 -2 -2 0 -6 2 -1
-0 -2 2 1 -0 1 -2 1 0 -5 -2 0 -3 -2 -0 -0 0 -4 -1 7 2 1 -1 -5 -6 -12 -4
1 1 -0 1 -1 0 0 0 -3 2 -3 -4 1 -2 -0 0 0 -1 -4 -4 2 3 1 -2 -2 -1 -2
-1 -2 2 3 -0 -1 -1 -3 -1 1 1 1 1 0 -0 2 2 -5 -0 -0 1 5 3 -3 -6 -3 -1
1 -1 1 1 -2 -0 1 -4 -4 -4 -0 -1 -3 -0 4 1 1 1 -6 2 4 -2 2 -0 4 -5 -4
-0 1 0 1 0 1 -0 -1 2 2 -1 -1 -4 -4 -2 -3 -2 1 -1 0 -8 -5 3 4 3 -6 -5
3 2 2 -1 -1 -4 -3 -1 0 -1 -2 -2 0 -2 -4 -0 -5 -2 -5 3 2 3 -5 -3 8 -1 -3
1 0 3 1 1 -0 -0 3 -3 3 -1 1 2 1 4 1 -2 -0 4 -0 -4 5 -1 -2 -6 -2 -6
Height
3189 3190 3191 3192 3192 3192 3191 3190 3188 3187 3184 3181 3179 3174 3170 3164 3160 3155 3150 3145 3139 3134 3129 3124 3118 3112 3107
3185 3186 3187 3188 3188 3188 3187 3186 3185 3183 3181 3178 3174 3170 3165 3160 3155 3150 3145 3139 3135 3130 3124 3119 3113 3107 3101
3181 3182 3183 3184 3184 3184 3183 3183 3181 3179 3176 3173 3170 3165 3160 3155 3150 3145 3140 3134 3129 3124 3119 3114 3108 3102 3096
3177 3179 3180 3180 3180 3180 3179 3179 3177 3174 3171 3169 3165 3160 3156 3150 3144 3140 3135 3129 3124 3119 3114 3108 3102 3096 3090
3173 3174 3175 3175 3175 3175 3175 3173 3171 3170 3167 3163 3159 3155 3150 3144 3139 3134 3129 3123 3118 3114 3109 3104 3097 3090 3084
3168 3169 3170 3170 3170 3170 3169 3168 3166 3164 3161 3159 3154 3150 3144 3139 3134 3129 3122 3117 3113 3108 3104 3097 3091 3086 3079
3163 3164 3166 3165 3166 3165 3163 3162 3160 3158 3156 3153 3149 3145 3139 3134 3129 3123 3118 3113 3108 3102 3096 3090 3086 3080 3073
3157 3159 3159 3160 3161 3160 3158 3156 3154 3152 3150 3147 3143 3138 3133 3128 3123 3118 3113 3110 3104 3099 3094 3087 3081 3076 3068
3152 3154 3153 3156 3155 3154 3153 3151 3149 3147 3144 3141 3138 3133 3129 3123 3117 3113 3109 3104 3100 3094 3088 3081 3074 3068 3064
3145 3147 3148 3149 3148 3147 3147 3145 3144 3142 3139 3136 3131 3127 3122 3118 3113 3110 3104 3100 3097 3091 3085 3077 3069 3060 3056
3139 3141 3143 3142 3142 3141 3141 3140 3138 3135 3132 3130 3126 3122 3117 3112 3107 3103 3099 3095 3092 3088 3083 3076 3065 3058 3049
3134 3136 3136 3136 3136 3135 3134 3134 3132 3129 3126 3124 3120 3116 3112 3108 3104 3101 3097 3091 3087 3084 3079 3071 3063 3055 3047
3129 3130 3130 3129 3130 3129 3129 3128 3126 3124 3121 3117 3113 3109 3106 3103 3100 3097 3096 3090 3084 3078 3073 3066 3055 3047 3041
3122 3123 3124 3124 3124 3124 3122 3121 3120 3118 3115 3111 3108 3105 3101 3097 3095 3091 3086 3081 3076 3069 3065 3061 3051 3041 3033
3115 3116 3118 3118 3118 3118 3117 3116 3114 3110 3108 3105 3102 3099 3096 3094 3091 3087 3082 3076 3070 3063 3056 3054 3046 3037 3028
3109 3110 3111 3111 3111 3111 3111 3109 3107 3105 3102 3099 3096 3094 3091 3089 3085 3080 3076 3071 3065 3057 3051 3045 3041 3032 3023
3104 3105 3106 3106 3105 3104 3103 3103 3101 3098 3096 3095 3092 3090 3088 3086 3081 3075 3070 3063 3058 3053 3045 3038 3032 3026 3019